Flag for Canada Weather past 2 weeks in Barrie, Ontario, Canada

Now
21 °F

Sunny.


Feels Like: 8 °F
Forecast: 8 / 25 °F
Wind: 14 mph from Northwest

Location: Borden

Current Time: Mar 28, 2015 at 2:18:45 PM

Latest Report: Mar 28, 2015 at 1:00 PM


Visibility: 9 mi

Pressure: 30.25 "Hg

Humidity: 45%

Dew point: 3 °F

Location of BarrieLocation

Historic Weather in Barrie — Graph

°F

Barrie temperature yesterday

Maximum temperature yesterday: 34 °F (at 12:00 AM)
Minimum temperature yesterday: 16 °F (at 11:00 PM)
Average temperature yesterday: 22 °F

Past Weeks' High & Low Weather Summary

 TemperatureHumidityPressure
High55 °F (Mar 16, 3:00 PM)100% (Mar 14, 4:00 AM)30.45 "Hg (Mar 14, 4:00 AM)
Low3 °F (Mar 24, 2:00 AM)21% (Mar 20, 4:00 PM)29.68 "Hg (Mar 17, 1:03 AM)
Average28 °F70%30.07 "Hg
* Reported Mar 13 1:00 PM — Mar 28 1:00 PM, Barrie, Weather by CustomWeather, © 2015

Note: Actual official high and low records may vary slightly from our data, if they occured in-between our weather recording intervals... More about our weather records

Advertising

Barrie weather history for previous 24 hours

 ConditionsComfort  
Time TempWeatherWind HumidityBarometerVisibility
1:00 PM
Sat, Mar 28
21 °FSunny.14 mph45%30.25 "Hg9 mi
12:00 PM19 °FSunny.10 mph45%30.25 "Hg9 mi
11:00 AM19 °FSunny.12 mph45%30.26 "Hg9 mi
10:00 AM18 °FSunny.9 mph45%30.25 "Hg9 mi
9:00 AM14 °FSunny.7 mph57%30.24 "Hg9 mi
8:00 AM10 °FClear.3 mph72%30.22 "Hg9 mi
7:00 AM7 °FClear.3 mph78%30.21 "Hg9 mi
6:00 AM7 °FClear.3 mph78%30.18 "Hg9 mi
5:00 AM9 °FClear.5 mph72%30.16 "Hg9 mi
4:00 AM10 °FClear.5 mph67%30.15 "Hg9 mi
3:00 AM12 °FClear.9 mph62%30.15 "Hg9 mi
2:00 AM12 °FClear.7 mph62%30.14 "Hg9 mi
1:00 AM14 °FClear.9 mph57%30.13 "Hg9 mi
12:00 AM16 °FPartly cloudy.12 mph53%30.12 "Hg9 mi
11:00 PM
Fri, Mar 27
16 °FMostly cloudy.7 mph57%30.10 "Hg9 mi
10:00 PM18 °FOvercast.13 mph53%30.07 "Hg9 mi
9:00 PM18 °FOvercast.7 mph62%30.06 "Hg9 mi
8:00 PM18 °FOvercast.10 mph62%30.05 "Hg9 mi
7:00 PM19 °FMostly cloudy.16 mph58%30.03 "Hg9 mi
6:02 PM19 °FMostly cloudy.10 mph63%29.97 "Hg9 mi
5:03 PM18 °FCloudy.18 mph68%29.96 "Hg9 mi
5:00 PM19 °FMostly cloudy.17 mph63%30.00 "Hg9 mi
4:00 PM19 °FLight snow. Overcast.17 mph73%29.99 "Hg5 mi
3:00 PM18 °FLight snow. Mostly cloudy.14 mph73%29.98 "Hg8 mi
2:47 PM18 °FLight snow. Overcast.14 mph73%29.95 "Hg9 mi
2:00 PM18 °FMostly cloudy.18 mph73%29.98 "Hg9 mi
Weather by CustomWeather, © 2015

See weather overviewHow to use our weather pages